Powrót do katalogu

CZ-5 R/B

AktywnyGTO
NORAD 67227·ROCKET BODY·🇨🇳 China

Wystrzelony Dec 20, 2025 z Wenchang Space Launch Site

Loading…

TLE

Starzejące sięSource: Space-Track

Epoka: Sep 14, 2026, 07:57 UTC

1 67227U 25306B   26257.33151051  .00000383  00000-0  92893-3 0  9999
2 67227  15.8025 209.4734 7534614 345.4119   1.1863  1.93818218  5200

Śledź CZ-5 R/B w czasie rzeczywistym z AllMySat

Download on the App Store